Index of /20260506/WXO-DD/model_gdps/15km/12/021
Name Last modified Size Description
Parent Directory -
20260506T12Z_MSC_GDPS_AbsoluteVorticity_IsbL-0200_LatLon0.15_PT021H.grib2 2026-05-06 18:30 1.5M
20260506T12Z_MSC_GDPS_AbsoluteVorticity_IsbL-0250_LatLon0.15_PT021H.grib2 2026-05-06 18:30 1.3M
20260506T12Z_MSC_GDPS_AbsoluteVorticity_IsbL-0500_LatLon0.15_PT021H.grib2 2026-05-06 18:30 1.5M
20260506T12Z_MSC_GDPS_AbsoluteVorticity_IsbL-0700_LatLon0.15_PT021H.grib2 2026-05-06 18:30 1.3M
20260506T12Z_MSC_GDPS_AbsoluteVorticity_IsbL-0850_LatLon0.15_PT021H.grib2 2026-05-06 18:30 1.6M
20260506T12Z_MSC_GDPS_AirTemp_AGL-120m_LatLon0.15_PT021H.grib2 2026-05-06 18:30 898K
20260506T12Z_MSC_GDPS_AirTemp_AGL-2m_LatLon0.15_PT021H.grib2 2026-05-06 18:30 1.0M
20260506T12Z_MSC_GDPS_AirTemp_AGL-40m_LatLon0.15_PT021H.grib2 2026-05-06 18:30 801K
20260506T12Z_MSC_GDPS_AirTemp_AGL-80m_LatLon0.15_PT021H.grib2 2026-05-06 18:30 906K
20260506T12Z_MSC_GDPS_AirTemp_IsbL-0001_LatLon0.15_PT021H.grib2 2026-05-06 18:30 663K
20260506T12Z_MSC_GDPS_AirTemp_IsbL-0005_LatLon0.15_PT021H.grib2 2026-05-06 18:30 699K
20260506T12Z_MSC_GDPS_AirTemp_IsbL-0010_LatLon0.15_PT021H.grib2 2026-05-06 18:30 706K
20260506T12Z_MSC_GDPS_AirTemp_IsbL-0020_LatLon0.15_PT021H.grib2 2026-05-06 18:30 791K
20260506T12Z_MSC_GDPS_AirTemp_IsbL-0030_LatLon0.15_PT021H.grib2 2026-05-06 18:30 840K
20260506T12Z_MSC_GDPS_AirTemp_IsbL-0050_LatLon0.15_PT021H.grib2 2026-05-06 18:30 808K
20260506T12Z_MSC_GDPS_AirTemp_IsbL-0100_LatLon0.15_PT021H.grib2 2026-05-06 18:30 952K
20260506T12Z_MSC_GDPS_AirTemp_IsbL-0150_LatLon0.15_PT021H.grib2 2026-05-06 18:30 972K
20260506T12Z_MSC_GDPS_AirTemp_IsbL-0175_LatLon0.15_PT021H.grib2 2026-05-06 18:30 959K
20260506T12Z_MSC_GDPS_AirTemp_IsbL-0200_LatLon0.15_PT021H.grib2 2026-05-06 18:30 972K
20260506T12Z_MSC_GDPS_AirTemp_IsbL-0225_LatLon0.15_PT021H.grib2 2026-05-06 18:30 1.0M
20260506T12Z_MSC_GDPS_AirTemp_IsbL-0250_LatLon0.15_PT021H.grib2 2026-05-06 18:30 1.0M
20260506T12Z_MSC_GDPS_AirTemp_IsbL-0275_LatLon0.15_PT021H.grib2 2026-05-06 18:30 1.0M
20260506T12Z_MSC_GDPS_AirTemp_IsbL-0300_LatLon0.15_PT021H.grib2 2026-05-06 18:30 949K
20260506T12Z_MSC_GDPS_AirTemp_IsbL-0350_LatLon0.15_PT021H.grib2 2026-05-06 18:30 936K
20260506T12Z_MSC_GDPS_AirTemp_IsbL-0400_LatLon0.15_PT021H.grib2 2026-05-06 18:30 946K
20260506T12Z_MSC_GDPS_AirTemp_IsbL-0450_LatLon0.15_PT021H.grib2 2026-05-06 18:30 967K
20260506T12Z_MSC_GDPS_AirTemp_IsbL-0500_LatLon0.15_PT021H.grib2 2026-05-06 18:30 1.0M
20260506T12Z_MSC_GDPS_AirTemp_IsbL-0550_LatLon0.15_PT021H.grib2 2026-05-06 18:30 803K
20260506T12Z_MSC_GDPS_AirTemp_IsbL-0600_LatLon0.15_PT021H.grib2 2026-05-06 18:30 892K
20260506T12Z_MSC_GDPS_AirTemp_IsbL-0650_LatLon0.15_PT021H.grib2 2026-05-06 18:30 922K
20260506T12Z_MSC_GDPS_AirTemp_IsbL-0700_LatLon0.15_PT021H.grib2 2026-05-06 18:30 958K
20260506T12Z_MSC_GDPS_AirTemp_IsbL-0750_LatLon0.15_PT021H.grib2 2026-05-06 18:30 1.0M
20260506T12Z_MSC_GDPS_AirTemp_IsbL-0800_LatLon0.15_PT021H.grib2 2026-05-06 18:30 1.1M
20260506T12Z_MSC_GDPS_AirTemp_IsbL-0850_LatLon0.15_PT021H.grib2 2026-05-06 18:30 1.1M
20260506T12Z_MSC_GDPS_AirTemp_IsbL-0875_LatLon0.15_PT021H.grib2 2026-05-06 18:30 1.2M
20260506T12Z_MSC_GDPS_AirTemp_IsbL-0900_LatLon0.15_PT021H.grib2 2026-05-06 18:30 1.2M
20260506T12Z_MSC_GDPS_AirTemp_IsbL-0925_LatLon0.15_PT021H.grib2 2026-05-06 18:30 1.1M
20260506T12Z_MSC_GDPS_AirTemp_IsbL-0950_LatLon0.15_PT021H.grib2 2026-05-06 18:30 1.1M
20260506T12Z_MSC_GDPS_AirTemp_IsbL-0970_LatLon0.15_PT021H.grib2 2026-05-06 18:30 1.1M
20260506T12Z_MSC_GDPS_AirTemp_IsbL-0985_LatLon0.15_PT021H.grib2 2026-05-06 18:30 1.1M
20260506T12Z_MSC_GDPS_AirTemp_IsbL-1000_LatLon0.15_PT021H.grib2 2026-05-06 18:30 1.1M
20260506T12Z_MSC_GDPS_AirTemp_IsbL-1015_LatLon0.15_PT021H.grib2 2026-05-06 18:30 853K
20260506T12Z_MSC_GDPS_Albedo_Sfc_LatLon0.15_PT021H.grib2 2026-05-06 18:30 241K
20260506T12Z_MSC_GDPS_CAPE_Sfc_LatLon0.15_PT021H.grib2 2026-05-06 18:30 3.9M
20260506T12Z_MSC_GDPS_CIN_Sfc_LatLon0.15_PT021H.grib2 2026-05-06 18:30 2.9M
20260506T12Z_MSC_GDPS_CloudWater_EAtm_LatLon0.15_PT021H.grib2 2026-05-06 18:30 536K
20260506T12Z_MSC_GDPS_ConvectivePrecip-Accum_Sfc_LatLon0.15_PT021H.grib2 2026-05-06 18:30 2.2M
20260506T12Z_MSC_GDPS_DewPointDepression_AGL-2m_LatLon0.15_PT021H.grib2 2026-05-06 18:30 764K
20260506T12Z_MSC_GDPS_DewPointDepression_IsbL-0010_LatLon0.15_PT021H.grib2 2026-05-06 18:30 81K
20260506T12Z_MSC_GDPS_DewPointDepression_IsbL-0020_LatLon0.15_PT021H.grib2 2026-05-06 18:30 73K
20260506T12Z_MSC_GDPS_DewPointDepression_IsbL-0030_LatLon0.15_PT021H.grib2 2026-05-06 18:30 92K
20260506T12Z_MSC_GDPS_DewPointDepression_IsbL-0050_LatLon0.15_PT021H.grib2 2026-05-06 18:30 383K
20260506T12Z_MSC_GDPS_DewPointDepression_IsbL-0100_LatLon0.15_PT021H.grib2 2026-05-06 18:30 398K
20260506T12Z_MSC_GDPS_DewPointDepression_IsbL-0150_LatLon0.15_PT021H.grib2 2026-05-06 18:30 497K
20260506T12Z_MSC_GDPS_DewPointDepression_IsbL-0175_LatLon0.15_PT021H.grib2 2026-05-06 18:30 594K
20260506T12Z_MSC_GDPS_DewPointDepression_IsbL-0200_LatLon0.15_PT021H.grib2 2026-05-06 18:30 699K
20260506T12Z_MSC_GDPS_DewPointDepression_IsbL-0225_LatLon0.15_PT021H.grib2 2026-05-06 18:30 782K
20260506T12Z_MSC_GDPS_DewPointDepression_IsbL-0250_LatLon0.15_PT021H.grib2 2026-05-06 18:30 871K
20260506T12Z_MSC_GDPS_DewPointDepression_IsbL-0275_LatLon0.15_PT021H.grib2 2026-05-06 18:30 896K
20260506T12Z_MSC_GDPS_DewPointDepression_IsbL-0300_LatLon0.15_PT021H.grib2 2026-05-06 18:30 938K
20260506T12Z_MSC_GDPS_DewPointDepression_IsbL-0350_LatLon0.15_PT021H.grib2 2026-05-06 18:30 959K
20260506T12Z_MSC_GDPS_DewPointDepression_IsbL-0400_LatLon0.15_PT021H.grib2 2026-05-06 18:30 1.0M
20260506T12Z_MSC_GDPS_DewPointDepression_IsbL-0450_LatLon0.15_PT021H.grib2 2026-05-06 18:30 1.0M
20260506T12Z_MSC_GDPS_DewPointDepression_IsbL-0500_LatLon0.15_PT021H.grib2 2026-05-06 18:30 1.0M
20260506T12Z_MSC_GDPS_DewPointDepression_IsbL-0550_LatLon0.15_PT021H.grib2 2026-05-06 18:30 1.0M
20260506T12Z_MSC_GDPS_DewPointDepression_IsbL-0600_LatLon0.15_PT021H.grib2 2026-05-06 18:30 1.0M
20260506T12Z_MSC_GDPS_DewPointDepression_IsbL-0650_LatLon0.15_PT021H.grib2 2026-05-06 18:30 1.0M
20260506T12Z_MSC_GDPS_DewPointDepression_IsbL-0700_LatLon0.15_PT021H.grib2 2026-05-06 18:30 1.1M
20260506T12Z_MSC_GDPS_DewPointDepression_IsbL-0750_LatLon0.15_PT021H.grib2 2026-05-06 18:30 1.1M
20260506T12Z_MSC_GDPS_DewPointDepression_IsbL-0800_LatLon0.15_PT021H.grib2 2026-05-06 18:30 1.2M
20260506T12Z_MSC_GDPS_DewPointDepression_IsbL-0850_LatLon0.15_PT021H.grib2 2026-05-06 18:30 1.2M
20260506T12Z_MSC_GDPS_DewPointDepression_IsbL-0875_LatLon0.15_PT021H.grib2 2026-05-06 18:30 1.1M
20260506T12Z_MSC_GDPS_DewPointDepression_IsbL-0900_LatLon0.15_PT021H.grib2 2026-05-06 18:30 1.1M
20260506T12Z_MSC_GDPS_DewPointDepression_IsbL-0925_LatLon0.15_PT021H.grib2 2026-05-06 18:30 1.0M
20260506T12Z_MSC_GDPS_DewPointDepression_IsbL-0950_LatLon0.15_PT021H.grib2 2026-05-06 18:30 1.0M
20260506T12Z_MSC_GDPS_DewPointDepression_IsbL-0970_LatLon0.15_PT021H.grib2 2026-05-06 18:30 1.0M
20260506T12Z_MSC_GDPS_DewPointDepression_IsbL-0985_LatLon0.15_PT021H.grib2 2026-05-06 18:30 1.0M
20260506T12Z_MSC_GDPS_DewPointDepression_IsbL-1000_LatLon0.15_PT021H.grib2 2026-05-06 18:30 1.0M
20260506T12Z_MSC_GDPS_DewPointDepression_IsbL-1015_LatLon0.15_PT021H.grib2 2026-05-06 18:30 917K
20260506T12Z_MSC_GDPS_DewPoint_AGL-2m_LatLon0.15_PT021H.grib2 2026-05-06 18:30 609K
20260506T12Z_MSC_GDPS_DownwardLongwaveRadiationFlux-Accum_Sfc_LatLon0.15_PT021H.grib2 2026-05-06 18:30 910K
20260506T12Z_MSC_GDPS_DownwardShortwaveRadiationFlux-Accum_NTAtm_LatLon0.15_PT021H.grib2 2026-05-06 18:30 320K
20260506T12Z_MSC_GDPS_DownwardShortwaveRadiationFlux-Accum_Sfc_LatLon0.15_PT021H.grib2 2026-05-06 18:30 1.1M
20260506T12Z_MSC_GDPS_FreezingRain-Accum1h_Sfc_LatLon0.15_PT021H.grib2 2026-05-06 18:30 39K
20260506T12Z_MSC_GDPS_FreezingRain-Accum3h_Sfc_LatLon0.15_PT021H.grib2 2026-05-06 18:30 41K
20260506T12Z_MSC_GDPS_FreezingRain-Accum_Sfc_LatLon0.15_PT021H.grib2 2026-05-06 18:30 142K
20260506T12Z_MSC_GDPS_GeopotentialHeight_IsbL-0001_LatLon0.15_PT021H.grib2 2026-05-06 18:30 441K
20260506T12Z_MSC_GDPS_GeopotentialHeight_IsbL-0005_LatLon0.15_PT021H.grib2 2026-05-06 18:30 489K
20260506T12Z_MSC_GDPS_GeopotentialHeight_IsbL-0010_LatLon0.15_PT021H.grib2 2026-05-06 18:30 478K
20260506T12Z_MSC_GDPS_GeopotentialHeight_IsbL-0020_LatLon0.15_PT021H.grib2 2026-05-06 18:30 417K
20260506T12Z_MSC_GDPS_GeopotentialHeight_IsbL-0030_LatLon0.15_PT021H.grib2 2026-05-06 18:30 422K
20260506T12Z_MSC_GDPS_GeopotentialHeight_IsbL-0050_LatLon0.15_PT021H.grib2 2026-05-06 18:30 575K
20260506T12Z_MSC_GDPS_GeopotentialHeight_IsbL-0100_LatLon0.15_PT021H.grib2 2026-05-06 18:30 606K
20260506T12Z_MSC_GDPS_GeopotentialHeight_IsbL-0150_LatLon0.15_PT021H.grib2 2026-05-06 18:30 629K
20260506T12Z_MSC_GDPS_GeopotentialHeight_IsbL-0175_LatLon0.15_PT021H.grib2 2026-05-06 18:30 634K
20260506T12Z_MSC_GDPS_GeopotentialHeight_IsbL-0200_LatLon0.15_PT021H.grib2 2026-05-06 18:30 638K
20260506T12Z_MSC_GDPS_GeopotentialHeight_IsbL-0225_LatLon0.15_PT021H.grib2 2026-05-06 18:30 634K
20260506T12Z_MSC_GDPS_GeopotentialHeight_IsbL-0250_LatLon0.15_PT021H.grib2 2026-05-06 18:30 642K
20260506T12Z_MSC_GDPS_GeopotentialHeight_IsbL-0275_LatLon0.15_PT021H.grib2 2026-05-06 18:30 641K
20260506T12Z_MSC_GDPS_GeopotentialHeight_IsbL-0300_LatLon0.15_PT021H.grib2 2026-05-06 18:30 640K
20260506T12Z_MSC_GDPS_GeopotentialHeight_IsbL-0350_LatLon0.15_PT021H.grib2 2026-05-06 18:30 630K
20260506T12Z_MSC_GDPS_GeopotentialHeight_IsbL-0400_LatLon0.15_PT021H.grib2 2026-05-06 18:30 622K
20260506T12Z_MSC_GDPS_GeopotentialHeight_IsbL-0450_LatLon0.15_PT021H.grib2 2026-05-06 18:30 542K
20260506T12Z_MSC_GDPS_GeopotentialHeight_IsbL-0500_LatLon0.15_PT021H.grib2 2026-05-06 18:30 533K
20260506T12Z_MSC_GDPS_GeopotentialHeight_IsbL-0550_LatLon0.15_PT021H.grib2 2026-05-06 18:30 527K
20260506T12Z_MSC_GDPS_GeopotentialHeight_IsbL-0600_LatLon0.15_PT021H.grib2 2026-05-06 18:30 690K
20260506T12Z_MSC_GDPS_GeopotentialHeight_IsbL-0650_LatLon0.15_PT021H.grib2 2026-05-06 18:30 691K
20260506T12Z_MSC_GDPS_GeopotentialHeight_IsbL-0700_LatLon0.15_PT021H.grib2 2026-05-06 18:30 688K
20260506T12Z_MSC_GDPS_GeopotentialHeight_IsbL-0750_LatLon0.15_PT021H.grib2 2026-05-06 18:30 698K
20260506T12Z_MSC_GDPS_GeopotentialHeight_IsbL-0800_LatLon0.15_PT021H.grib2 2026-05-06 18:30 708K
20260506T12Z_MSC_GDPS_GeopotentialHeight_IsbL-0850_LatLon0.15_PT021H.grib2 2026-05-06 18:30 715K
20260506T12Z_MSC_GDPS_GeopotentialHeight_IsbL-0875_LatLon0.15_PT021H.grib2 2026-05-06 18:30 719K
20260506T12Z_MSC_GDPS_GeopotentialHeight_IsbL-0900_LatLon0.15_PT021H.grib2 2026-05-06 18:30 723K
20260506T12Z_MSC_GDPS_GeopotentialHeight_IsbL-0925_LatLon0.15_PT021H.grib2 2026-05-06 18:30 729K
20260506T12Z_MSC_GDPS_GeopotentialHeight_IsbL-0950_LatLon0.15_PT021H.grib2 2026-05-06 18:30 740K
20260506T12Z_MSC_GDPS_GeopotentialHeight_IsbL-0970_LatLon0.15_PT021H.grib2 2026-05-06 18:30 751K
20260506T12Z_MSC_GDPS_GeopotentialHeight_IsbL-0985_LatLon0.15_PT021H.grib2 2026-05-06 18:30 765K
20260506T12Z_MSC_GDPS_GeopotentialHeight_IsbL-1000_LatLon0.15_PT021H.grib2 2026-05-06 18:30 785K
20260506T12Z_MSC_GDPS_GeopotentialHeight_IsbL-1015_LatLon0.15_PT021H.grib2 2026-05-06 18:30 807K
20260506T12Z_MSC_GDPS_Humidex_Sfc_LatLon0.15_PT021H.grib2 2026-05-06 18:30 5.3M
20260506T12Z_MSC_GDPS_IcePellets-Accum1h_Sfc_LatLon0.15_PT021H.grib2 2026-05-06 18:30 7.7K
20260506T12Z_MSC_GDPS_IcePellets-Accum3h_Sfc_LatLon0.15_PT021H.grib2 2026-05-06 18:30 7.4K
20260506T12Z_MSC_GDPS_IcePellets-Accum_Sfc_LatLon0.15_PT021H.grib2 2026-05-06 18:30 21K
20260506T12Z_MSC_GDPS_KIndex_Sfc_LatLon0.15_PT021H.grib2 2026-05-06 18:30 6.4M
20260506T12Z_MSC_GDPS_LatentHeatNetFlux_Sfc_LatLon0.15_PT021H.grib2 2026-05-06 18:30 561K
20260506T12Z_MSC_GDPS_LiftedIndex-MU-VT_IsbL-0500_LatLon0.15_PT021H.grib2 2026-05-06 18:30 5.4M
20260506T12Z_MSC_GDPS_NetLongwaveRadiationFlux-Accum_Sfc_LatLon0.15_PT021H.grib2 2026-05-06 18:30 1.2M
20260506T12Z_MSC_GDPS_NetShortwaveRadiationFlux-Accum_Sfc_LatLon0.15_PT021H.grib2 2026-05-06 18:30 1.1M
20260506T12Z_MSC_GDPS_O3MixingRatio_Sfc_LatLon0.15_PT021H.grib2 2026-05-06 18:19 2.3M
20260506T12Z_MSC_GDPS_O3_EAtm_LatLon0.15_PT021H.grib2 2026-05-06 18:19 2.5M
20260506T12Z_MSC_GDPS_PlanetaryBoundaryLayerHeight_Sfc_LatLon0.15_PT021H.grib2 2026-05-06 18:30 2.5M
20260506T12Z_MSC_GDPS_Precip-Accum1h_Sfc_LatLon0.15_PT021H.grib2 2026-05-06 18:30 3.3M
20260506T12Z_MSC_GDPS_Precip-Accum3h_Sfc_LatLon0.15_PT021H.grib2 2026-05-06 18:30 3.5M
20260506T12Z_MSC_GDPS_Precip-Accum_Sfc_LatLon0.15_PT021H.grib2 2026-05-06 18:30 4.3M
20260506T12Z_MSC_GDPS_PrecipRate_Sfc_LatLon0.15_PT021H.grib2 2026-05-06 18:30 3.1M
20260506T12Z_MSC_GDPS_PrecipType-Instant_Sfc_LatLon0.15_PT021H.grib2 2026-05-06 18:30 1.6M
20260506T12Z_MSC_GDPS_Pressure_MSL_LatLon0.15_PT021H.grib2 2026-05-06 18:30 720K
20260506T12Z_MSC_GDPS_Pressure_PVU-1.5_LatLon0.15_PT021H.grib2 2026-05-06 18:30 5.8M
20260506T12Z_MSC_GDPS_Pressure_PVU-1_LatLon0.15_PT021H.grib2 2026-05-06 18:30 6.0M
20260506T12Z_MSC_GDPS_Pressure_PVU-2_LatLon0.15_PT021H.grib2 2026-05-06 18:30 5.6M
20260506T12Z_MSC_GDPS_Pressure_Sfc_LatLon0.15_PT021H.grib2 2026-05-06 18:30 1.1M
20260506T12Z_MSC_GDPS_RadiativeTemp_Sfc_LatLon0.15_PT021H.grib2 2026-05-06 18:30 496K
20260506T12Z_MSC_GDPS_Rain-Accum1h_Sfc_LatLon0.15_PT021H.grib2 2026-05-06 18:30 1.7M
20260506T12Z_MSC_GDPS_Rain-Accum3h_Sfc_LatLon0.15_PT021H.grib2 2026-05-06 18:30 1.9M
20260506T12Z_MSC_GDPS_Rain-Accum_Sfc_LatLon0.15_PT021H.grib2 2026-05-06 18:30 3.2M
20260506T12Z_MSC_GDPS_RelativeHumidity_AGL-2m_LatLon0.15_PT021H.grib2 2026-05-06 18:30 1.0M
20260506T12Z_MSC_GDPS_RelativeHumidity_IsbL-0010_LatLon0.15_PT021H.grib2 2026-05-06 18:30 145K
20260506T12Z_MSC_GDPS_RelativeHumidity_IsbL-0020_LatLon0.15_PT021H.grib2 2026-05-06 18:30 178K
20260506T12Z_MSC_GDPS_RelativeHumidity_IsbL-0030_LatLon0.15_PT021H.grib2 2026-05-06 18:30 277K
20260506T12Z_MSC_GDPS_RelativeHumidity_IsbL-0050_LatLon0.15_PT021H.grib2 2026-05-06 18:30 338K
20260506T12Z_MSC_GDPS_RelativeHumidity_IsbL-0100_LatLon0.15_PT021H.grib2 2026-05-06 18:30 510K
20260506T12Z_MSC_GDPS_RelativeHumidity_IsbL-0150_LatLon0.15_PT021H.grib2 2026-05-06 18:30 684K
20260506T12Z_MSC_GDPS_RelativeHumidity_IsbL-0175_LatLon0.15_PT021H.grib2 2026-05-06 18:30 602K
20260506T12Z_MSC_GDPS_RelativeHumidity_IsbL-0200_LatLon0.15_PT021H.grib2 2026-05-06 18:30 708K
20260506T12Z_MSC_GDPS_RelativeHumidity_IsbL-0225_LatLon0.15_PT021H.grib2 2026-05-06 18:30 794K
20260506T12Z_MSC_GDPS_RelativeHumidity_IsbL-0250_LatLon0.15_PT021H.grib2 2026-05-06 18:30 862K
20260506T12Z_MSC_GDPS_RelativeHumidity_IsbL-0275_LatLon0.15_PT021H.grib2 2026-05-06 18:30 885K
20260506T12Z_MSC_GDPS_RelativeHumidity_IsbL-0300_LatLon0.15_PT021H.grib2 2026-05-06 18:30 928K
20260506T12Z_MSC_GDPS_RelativeHumidity_IsbL-0350_LatLon0.15_PT021H.grib2 2026-05-06 18:30 946K
20260506T12Z_MSC_GDPS_RelativeHumidity_IsbL-0400_LatLon0.15_PT021H.grib2 2026-05-06 18:30 972K
20260506T12Z_MSC_GDPS_RelativeHumidity_IsbL-0450_LatLon0.15_PT021H.grib2 2026-05-06 18:30 1.0M
20260506T12Z_MSC_GDPS_RelativeHumidity_IsbL-0500_LatLon0.15_PT021H.grib2 2026-05-06 18:30 1.0M
20260506T12Z_MSC_GDPS_RelativeHumidity_IsbL-0550_LatLon0.15_PT021H.grib2 2026-05-06 18:30 1.1M
20260506T12Z_MSC_GDPS_RelativeHumidity_IsbL-0600_LatLon0.15_PT021H.grib2 2026-05-06 18:30 1.1M
20260506T12Z_MSC_GDPS_RelativeHumidity_IsbL-0650_LatLon0.15_PT021H.grib2 2026-05-06 18:30 1.1M
20260506T12Z_MSC_GDPS_RelativeHumidity_IsbL-0700_LatLon0.15_PT021H.grib2 2026-05-06 18:30 1.1M
20260506T12Z_MSC_GDPS_RelativeHumidity_IsbL-0750_LatLon0.15_PT021H.grib2 2026-05-06 18:30 1.2M
20260506T12Z_MSC_GDPS_RelativeHumidity_IsbL-0800_LatLon0.15_PT021H.grib2 2026-05-06 18:30 1.2M
20260506T12Z_MSC_GDPS_RelativeHumidity_IsbL-0850_LatLon0.15_PT021H.grib2 2026-05-06 18:30 1.3M
20260506T12Z_MSC_GDPS_RelativeHumidity_IsbL-0875_LatLon0.15_PT021H.grib2 2026-05-06 18:30 1.3M
20260506T12Z_MSC_GDPS_RelativeHumidity_IsbL-0900_LatLon0.15_PT021H.grib2 2026-05-06 18:30 1.2M
20260506T12Z_MSC_GDPS_RelativeHumidity_IsbL-0925_LatLon0.15_PT021H.grib2 2026-05-06 18:30 1.2M
20260506T12Z_MSC_GDPS_RelativeHumidity_IsbL-0950_LatLon0.15_PT021H.grib2 2026-05-06 18:30 1.2M
20260506T12Z_MSC_GDPS_RelativeHumidity_IsbL-0970_LatLon0.15_PT021H.grib2 2026-05-06 18:30 1.2M
20260506T12Z_MSC_GDPS_RelativeHumidity_IsbL-0985_LatLon0.15_PT021H.grib2 2026-05-06 18:30 1.1M
20260506T12Z_MSC_GDPS_RelativeHumidity_IsbL-1000_LatLon0.15_PT021H.grib2 2026-05-06 18:30 1.1M
20260506T12Z_MSC_GDPS_RelativeHumidity_IsbL-1015_LatLon0.15_PT021H.grib2 2026-05-06 18:30 1.0M
20260506T12Z_MSC_GDPS_RelativeVorticity_IsbL-0200_LatLon0.15_PT021H.grib2 2026-05-06 18:30 1.5M
20260506T12Z_MSC_GDPS_RelativeVorticity_IsbL-0250_LatLon0.15_PT021H.grib2 2026-05-06 18:30 1.6M
20260506T12Z_MSC_GDPS_RelativeVorticity_IsbL-0500_LatLon0.15_PT021H.grib2 2026-05-06 18:30 1.5M
20260506T12Z_MSC_GDPS_RelativeVorticity_IsbL-0700_LatLon0.15_PT021H.grib2 2026-05-06 18:30 1.3M
20260506T12Z_MSC_GDPS_RelativeVorticity_IsbL-0850_LatLon0.15_PT021H.grib2 2026-05-06 18:30 1.6M
20260506T12Z_MSC_GDPS_Runoff-Accum_Sfc_LatLon0.15_PT021H.grib2 2026-05-06 18:30 82K
20260506T12Z_MSC_GDPS_SensibleHeatNetFlux_Sfc_LatLon0.15_PT021H.grib2 2026-05-06 18:30 496K
20260506T12Z_MSC_GDPS_ShowalterIndex_IsbL-0500_LatLon0.15_PT021H.grib2 2026-05-06 18:30 6.2M
20260506T12Z_MSC_GDPS_Snow-Accum1h_Sfc_LatLon0.15_PT021H.grib2 2026-05-06 18:30 1.1M
20260506T12Z_MSC_GDPS_Snow-Accum3h_Sfc_LatLon0.15_PT021H.grib2 2026-05-06 18:30 1.1M
20260506T12Z_MSC_GDPS_Snow-Accum_Sfc_LatLon0.15_PT021H.grib2 2026-05-06 18:30 1.8M
20260506T12Z_MSC_GDPS_SnowDensity_Sfc_LatLon0.15_PT021H.grib2 2026-05-06 18:30 250K
20260506T12Z_MSC_GDPS_SnowDepth_Sfc_LatLon0.15_PT021H.grib2 2026-05-06 18:30 1.7M
20260506T12Z_MSC_GDPS_SoilTemp_DBS-0to10cm_LatLon0.15_PT021H.grib2 2026-05-06 18:30 498K
20260506T12Z_MSC_GDPS_SoilTemp_Sfc_LatLon0.15_PT021H.grib2 2026-05-06 18:30 574K
20260506T12Z_MSC_GDPS_SoilVolumetricIceContent_Sfc_LatLon0.15_PT021H.grib2 2026-05-06 18:30 186K
20260506T12Z_MSC_GDPS_SoilVolumetricWaterContent_DBS-0to10cm_LatLon0.15_PT021H.grib2 2026-05-06 18:30 594K
20260506T12Z_MSC_GDPS_SoilVolumetricWaterContent_DBS-0to1cm_LatLon0.15_PT021H.grib2 2026-05-06 18:30 651K
20260506T12Z_MSC_GDPS_SpecificHumidity_AGL-120m_LatLon0.15_PT021H.grib2 2026-05-06 18:30 1.1M
20260506T12Z_MSC_GDPS_SpecificHumidity_AGL-2m_LatLon0.15_PT021H.grib2 2026-05-06 18:30 1.2M
20260506T12Z_MSC_GDPS_SpecificHumidity_AGL-40m_LatLon0.15_PT021H.grib2 2026-05-06 18:30 1.1M
20260506T12Z_MSC_GDPS_SpecificHumidity_AGL-80m_LatLon0.15_PT021H.grib2 2026-05-06 18:30 1.1M
20260506T12Z_MSC_GDPS_SpecificHumidity_IsbL-0001_LatLon0.15_PT021H.grib2 2026-05-06 18:30 1.1M
20260506T12Z_MSC_GDPS_SpecificHumidity_IsbL-0005_LatLon0.15_PT021H.grib2 2026-05-06 18:30 1.3M
20260506T12Z_MSC_GDPS_SpecificHumidity_IsbL-0010_LatLon0.15_PT021H.grib2 2026-05-06 18:30 1.4M
20260506T12Z_MSC_GDPS_SpecificHumidity_IsbL-0020_LatLon0.15_PT021H.grib2 2026-05-06 18:30 1.4M
20260506T12Z_MSC_GDPS_SpecificHumidity_IsbL-0030_LatLon0.15_PT021H.grib2 2026-05-06 18:30 1.4M
20260506T12Z_MSC_GDPS_SpecificHumidity_IsbL-0050_LatLon0.15_PT021H.grib2 2026-05-06 18:30 1.4M
20260506T12Z_MSC_GDPS_SpecificHumidity_IsbL-0100_LatLon0.15_PT021H.grib2 2026-05-06 18:30 1.3M
20260506T12Z_MSC_GDPS_SpecificHumidity_IsbL-0150_LatLon0.15_PT021H.grib2 2026-05-06 18:30 1.0M
20260506T12Z_MSC_GDPS_SpecificHumidity_IsbL-0175_LatLon0.15_PT021H.grib2 2026-05-06 18:30 1.3M
20260506T12Z_MSC_GDPS_SpecificHumidity_IsbL-0200_LatLon0.15_PT021H.grib2 2026-05-06 18:30 1.3M
20260506T12Z_MSC_GDPS_SpecificHumidity_IsbL-0225_LatLon0.15_PT021H.grib2 2026-05-06 18:30 1.3M
20260506T12Z_MSC_GDPS_SpecificHumidity_IsbL-0250_LatLon0.15_PT021H.grib2 2026-05-06 18:30 1.4M
20260506T12Z_MSC_GDPS_SpecificHumidity_IsbL-0275_LatLon0.15_PT021H.grib2 2026-05-06 18:30 1.3M
20260506T12Z_MSC_GDPS_SpecificHumidity_IsbL-0300_LatLon0.15_PT021H.grib2 2026-05-06 18:30 1.2M
20260506T12Z_MSC_GDPS_SpecificHumidity_IsbL-0350_LatLon0.15_PT021H.grib2 2026-05-06 18:30 1.2M
20260506T12Z_MSC_GDPS_SpecificHumidity_IsbL-0400_LatLon0.15_PT021H.grib2 2026-05-06 18:30 1.5M
20260506T12Z_MSC_GDPS_SpecificHumidity_IsbL-0450_LatLon0.15_PT021H.grib2 2026-05-06 18:30 1.3M
20260506T12Z_MSC_GDPS_SpecificHumidity_IsbL-0500_LatLon0.15_PT021H.grib2 2026-05-06 18:30 1.4M
20260506T12Z_MSC_GDPS_SpecificHumidity_IsbL-0550_LatLon0.15_PT021H.grib2 2026-05-06 18:30 1.6M
20260506T12Z_MSC_GDPS_SpecificHumidity_IsbL-0600_LatLon0.15_PT021H.grib2 2026-05-06 18:30 1.7M
20260506T12Z_MSC_GDPS_SpecificHumidity_IsbL-0650_LatLon0.15_PT021H.grib2 2026-05-06 18:30 1.5M
20260506T12Z_MSC_GDPS_SpecificHumidity_IsbL-0700_LatLon0.15_PT021H.grib2 2026-05-06 18:30 1.6M
20260506T12Z_MSC_GDPS_SpecificHumidity_IsbL-0750_LatLon0.15_PT021H.grib2 2026-05-06 18:30 1.7M
20260506T12Z_MSC_GDPS_SpecificHumidity_IsbL-0800_LatLon0.15_PT021H.grib2 2026-05-06 18:30 1.9M
20260506T12Z_MSC_GDPS_SpecificHumidity_IsbL-0850_LatLon0.15_PT021H.grib2 2026-05-06 18:30 2.0M
20260506T12Z_MSC_GDPS_SpecificHumidity_IsbL-0875_LatLon0.15_PT021H.grib2 2026-05-06 18:30 2.0M
20260506T12Z_MSC_GDPS_SpecificHumidity_IsbL-0900_LatLon0.15_PT021H.grib2 2026-05-06 18:30 1.6M
20260506T12Z_MSC_GDPS_SpecificHumidity_IsbL-0925_LatLon0.15_PT021H.grib2 2026-05-06 18:30 1.6M
20260506T12Z_MSC_GDPS_SpecificHumidity_IsbL-0950_LatLon0.15_PT021H.grib2 2026-05-06 18:30 1.6M
20260506T12Z_MSC_GDPS_SpecificHumidity_IsbL-0970_LatLon0.15_PT021H.grib2 2026-05-06 18:30 1.5M
20260506T12Z_MSC_GDPS_SpecificHumidity_IsbL-0985_LatLon0.15_PT021H.grib2 2026-05-06 18:30 1.5M
20260506T12Z_MSC_GDPS_SpecificHumidity_IsbL-1000_LatLon0.15_PT021H.grib2 2026-05-06 18:30 1.5M
20260506T12Z_MSC_GDPS_SpecificHumidity_IsbL-1015_LatLon0.15_PT021H.grib2 2026-05-06 18:30 1.5M
20260506T12Z_MSC_GDPS_SpecificHumidity_Sfc_LatLon0.15_PT021H.grib2 2026-05-06 18:30 680K
20260506T12Z_MSC_GDPS_Thickness_IsbL-0850to0700_LatLon0.15_PT021H.grib2 2026-05-06 18:30 472K
20260506T12Z_MSC_GDPS_Thickness_IsbL-1000to0500_LatLon0.15_PT021H.grib2 2026-05-06 18:30 370K
20260506T12Z_MSC_GDPS_Thickness_IsbL-1000to0850_LatLon0.15_PT021H.grib2 2026-05-06 18:30 491K
20260506T12Z_MSC_GDPS_TotalCloudCover_Sfc_LatLon0.15_PT021H.grib2 2026-05-06 18:30 832K
20260506T12Z_MSC_GDPS_TotalTotalsIndex_Sfc_LatLon0.15_PT021H.grib2 2026-05-06 18:30 6.2M
20260506T12Z_MSC_GDPS_UVIndex-ClearSky_Sfc_LatLon0.15_PT021H.grib2 2026-05-06 18:19 1.1M
20260506T12Z_MSC_GDPS_UVIndex_Sfc_LatLon0.15_PT021H.grib2 2026-05-06 18:19 1.5M
20260506T12Z_MSC_GDPS_UpwardLongwaveRadiationFlux_NTAtm_LatLon0.15_PT021H.grib2 2026-05-06 18:30 838K
20260506T12Z_MSC_GDPS_VerticalVelocity_IsbL-0200_LatLon0.15_PT021H.grib2 2026-05-06 18:30 1.2M
20260506T12Z_MSC_GDPS_VerticalVelocity_IsbL-0250_LatLon0.15_PT021H.grib2 2026-05-06 18:30 1.1M
20260506T12Z_MSC_GDPS_VerticalVelocity_IsbL-0500_LatLon0.15_PT021H.grib2 2026-05-06 18:30 1.0M
20260506T12Z_MSC_GDPS_VerticalVelocity_IsbL-0600_LatLon0.15_PT021H.grib2 2026-05-06 18:30 1.1M
20260506T12Z_MSC_GDPS_VerticalVelocity_IsbL-0700_LatLon0.15_PT021H.grib2 2026-05-06 18:30 1.4M
20260506T12Z_MSC_GDPS_VerticalVelocity_IsbL-0850_LatLon0.15_PT021H.grib2 2026-05-06 18:30 1.6M
20260506T12Z_MSC_GDPS_WindChill_Sfc_LatLon0.15_PT021H.grib2 2026-05-06 18:30 5.3M
20260506T12Z_MSC_GDPS_WindDir_AGL-10m_LatLon0.15_PT021H.grib2 2026-05-06 18:30 1.3M
20260506T12Z_MSC_GDPS_WindDir_AGL-120m_LatLon0.15_PT021H.grib2 2026-05-06 18:30 1.3M
20260506T12Z_MSC_GDPS_WindDir_AGL-40m_LatLon0.15_PT021H.grib2 2026-05-06 18:30 1.4M
20260506T12Z_MSC_GDPS_WindDir_AGL-80m_LatLon0.15_PT021H.grib2 2026-05-06 18:30 1.3M
20260506T12Z_MSC_GDPS_WindDir_IsbL-0001_LatLon0.15_PT021H.grib2 2026-05-06 18:30 682K
20260506T12Z_MSC_GDPS_WindDir_IsbL-0005_LatLon0.15_PT021H.grib2 2026-05-06 18:30 843K
20260506T12Z_MSC_GDPS_WindDir_IsbL-0010_LatLon0.15_PT021H.grib2 2026-05-06 18:30 852K
20260506T12Z_MSC_GDPS_WindDir_IsbL-0020_LatLon0.15_PT021H.grib2 2026-05-06 18:30 939K
20260506T12Z_MSC_GDPS_WindDir_IsbL-0030_LatLon0.15_PT021H.grib2 2026-05-06 18:30 938K
20260506T12Z_MSC_GDPS_WindDir_IsbL-0050_LatLon0.15_PT021H.grib2 2026-05-06 18:30 944K
20260506T12Z_MSC_GDPS_WindDir_IsbL-0100_LatLon0.15_PT021H.grib2 2026-05-06 18:30 1.0M
20260506T12Z_MSC_GDPS_WindDir_IsbL-0150_LatLon0.15_PT021H.grib2 2026-05-06 18:30 1.0M
20260506T12Z_MSC_GDPS_WindDir_IsbL-0175_LatLon0.15_PT021H.grib2 2026-05-06 18:30 1.1M
20260506T12Z_MSC_GDPS_WindDir_IsbL-0200_LatLon0.15_PT021H.grib2 2026-05-06 18:30 1.1M
20260506T12Z_MSC_GDPS_WindDir_IsbL-0225_LatLon0.15_PT021H.grib2 2026-05-06 18:30 1.1M
20260506T12Z_MSC_GDPS_WindDir_IsbL-0250_LatLon0.15_PT021H.grib2 2026-05-06 18:30 1.1M
20260506T12Z_MSC_GDPS_WindDir_IsbL-0275_LatLon0.15_PT021H.grib2 2026-05-06 18:30 1.2M
20260506T12Z_MSC_GDPS_WindDir_IsbL-0300_LatLon0.15_PT021H.grib2 2026-05-06 18:30 1.2M
20260506T12Z_MSC_GDPS_WindDir_IsbL-0350_LatLon0.15_PT021H.grib2 2026-05-06 18:30 1.2M
20260506T12Z_MSC_GDPS_WindDir_IsbL-0400_LatLon0.15_PT021H.grib2 2026-05-06 18:30 1.3M
20260506T12Z_MSC_GDPS_WindDir_IsbL-0450_LatLon0.15_PT021H.grib2 2026-05-06 18:30 1.3M
20260506T12Z_MSC_GDPS_WindDir_IsbL-0500_LatLon0.15_PT021H.grib2 2026-05-06 18:30 1.4M
20260506T12Z_MSC_GDPS_WindDir_IsbL-0550_LatLon0.15_PT021H.grib2 2026-05-06 18:30 1.4M
20260506T12Z_MSC_GDPS_WindDir_IsbL-0600_LatLon0.15_PT021H.grib2 2026-05-06 18:30 1.4M
20260506T12Z_MSC_GDPS_WindDir_IsbL-0650_LatLon0.15_PT021H.grib2 2026-05-06 18:30 1.5M
20260506T12Z_MSC_GDPS_WindDir_IsbL-0700_LatLon0.15_PT021H.grib2 2026-05-06 18:30 1.6M
20260506T12Z_MSC_GDPS_WindDir_IsbL-0750_LatLon0.15_PT021H.grib2 2026-05-06 18:30 1.7M
20260506T12Z_MSC_GDPS_WindDir_IsbL-0800_LatLon0.15_PT021H.grib2 2026-05-06 18:30 1.8M
20260506T12Z_MSC_GDPS_WindDir_IsbL-0850_LatLon0.15_PT021H.grib2 2026-05-06 18:30 1.9M
20260506T12Z_MSC_GDPS_WindDir_IsbL-0875_LatLon0.15_PT021H.grib2 2026-05-06 18:30 1.9M
20260506T12Z_MSC_GDPS_WindDir_IsbL-0900_LatLon0.15_PT021H.grib2 2026-05-06 18:30 1.9M
20260506T12Z_MSC_GDPS_WindDir_IsbL-0925_LatLon0.15_PT021H.grib2 2026-05-06 18:30 1.9M
20260506T12Z_MSC_GDPS_WindDir_IsbL-0950_LatLon0.15_PT021H.grib2 2026-05-06 18:30 1.9M
20260506T12Z_MSC_GDPS_WindDir_IsbL-0970_LatLon0.15_PT021H.grib2 2026-05-06 18:30 2.0M
20260506T12Z_MSC_GDPS_WindDir_IsbL-0985_LatLon0.15_PT021H.grib2 2026-05-06 18:30 2.0M
20260506T12Z_MSC_GDPS_WindDir_IsbL-1000_LatLon0.15_PT021H.grib2 2026-05-06 18:30 2.0M
20260506T12Z_MSC_GDPS_WindDir_IsbL-1015_LatLon0.15_PT021H.grib2 2026-05-06 18:30 2.0M
20260506T12Z_MSC_GDPS_WindGust-Max_AGL-10m_LatLon0.15_PT021H.grib2 2026-05-06 18:30 1.8M
20260506T12Z_MSC_GDPS_WindGust-Min_AGL-10m_LatLon0.15_PT021H.grib2 2026-05-06 18:30 2.2M
20260506T12Z_MSC_GDPS_WindGust_AGL-10m_LatLon0.15_PT021H.grib2 2026-05-06 18:30 2.2M
20260506T12Z_MSC_GDPS_WindSpeed_AGL-10m_LatLon0.15_PT021H.grib2 2026-05-06 18:30 1.1M
20260506T12Z_MSC_GDPS_WindSpeed_AGL-120m_LatLon0.15_PT021H.grib2 2026-05-06 18:30 1.2M
20260506T12Z_MSC_GDPS_WindSpeed_AGL-40m_LatLon0.15_PT021H.grib2 2026-05-06 18:30 1.2M
20260506T12Z_MSC_GDPS_WindSpeed_AGL-80m_LatLon0.15_PT021H.grib2 2026-05-06 18:30 1.2M
20260506T12Z_MSC_GDPS_WindSpeed_IsbL-0001_LatLon0.15_PT021H.grib2 2026-05-06 18:30 508K
20260506T12Z_MSC_GDPS_WindSpeed_IsbL-0005_LatLon0.15_PT021H.grib2 2026-05-06 18:30 706K
20260506T12Z_MSC_GDPS_WindSpeed_IsbL-0010_LatLon0.15_PT021H.grib2 2026-05-06 18:30 640K
20260506T12Z_MSC_GDPS_WindSpeed_IsbL-0020_LatLon0.15_PT021H.grib2 2026-05-06 18:30 676K
20260506T12Z_MSC_GDPS_WindSpeed_IsbL-0030_LatLon0.15_PT021H.grib2 2026-05-06 18:30 679K
20260506T12Z_MSC_GDPS_WindSpeed_IsbL-0050_LatLon0.15_PT021H.grib2 2026-05-06 18:30 906K
20260506T12Z_MSC_GDPS_WindSpeed_IsbL-0100_LatLon0.15_PT021H.grib2 2026-05-06 18:30 1.1M
20260506T12Z_MSC_GDPS_WindSpeed_IsbL-0150_LatLon0.15_PT021H.grib2 2026-05-06 18:30 1.0M
20260506T12Z_MSC_GDPS_WindSpeed_IsbL-0175_LatLon0.15_PT021H.grib2 2026-05-06 18:30 1.0M
20260506T12Z_MSC_GDPS_WindSpeed_IsbL-0200_LatLon0.15_PT021H.grib2 2026-05-06 18:30 1.1M
20260506T12Z_MSC_GDPS_WindSpeed_IsbL-0225_LatLon0.15_PT021H.grib2 2026-05-06 18:30 1.1M
20260506T12Z_MSC_GDPS_WindSpeed_IsbL-0250_LatLon0.15_PT021H.grib2 2026-05-06 18:30 1.1M
20260506T12Z_MSC_GDPS_WindSpeed_IsbL-0275_LatLon0.15_PT021H.grib2 2026-05-06 18:30 1.1M
20260506T12Z_MSC_GDPS_WindSpeed_IsbL-0300_LatLon0.15_PT021H.grib2 2026-05-06 18:30 1.1M
20260506T12Z_MSC_GDPS_WindSpeed_IsbL-0350_LatLon0.15_PT021H.grib2 2026-05-06 18:30 1.1M
20260506T12Z_MSC_GDPS_WindSpeed_IsbL-0400_LatLon0.15_PT021H.grib2 2026-05-06 18:30 1.1M
20260506T12Z_MSC_GDPS_WindSpeed_IsbL-0450_LatLon0.15_PT021H.grib2 2026-05-06 18:30 1.1M
20260506T12Z_MSC_GDPS_WindSpeed_IsbL-0500_LatLon0.15_PT021H.grib2 2026-05-06 18:30 1.1M
20260506T12Z_MSC_GDPS_WindSpeed_IsbL-0550_LatLon0.15_PT021H.grib2 2026-05-06 18:30 1.1M
20260506T12Z_MSC_GDPS_WindSpeed_IsbL-0600_LatLon0.15_PT021H.grib2 2026-05-06 18:30 1.1M
20260506T12Z_MSC_GDPS_WindSpeed_IsbL-0650_LatLon0.15_PT021H.grib2 2026-05-06 18:30 1.5M
20260506T12Z_MSC_GDPS_WindSpeed_IsbL-0700_LatLon0.15_PT021H.grib2 2026-05-06 18:30 1.5M
20260506T12Z_MSC_GDPS_WindSpeed_IsbL-0750_LatLon0.15_PT021H.grib2 2026-05-06 18:30 1.6M
20260506T12Z_MSC_GDPS_WindSpeed_IsbL-0800_LatLon0.15_PT021H.grib2 2026-05-06 18:30 1.4M
20260506T12Z_MSC_GDPS_WindSpeed_IsbL-0850_LatLon0.15_PT021H.grib2 2026-05-06 18:30 1.8M
20260506T12Z_MSC_GDPS_WindSpeed_IsbL-0875_LatLon0.15_PT021H.grib2 2026-05-06 18:30 1.8M
20260506T12Z_MSC_GDPS_WindSpeed_IsbL-0900_LatLon0.15_PT021H.grib2 2026-05-06 18:30 1.8M
20260506T12Z_MSC_GDPS_WindSpeed_IsbL-0925_LatLon0.15_PT021H.grib2 2026-05-06 18:30 1.8M
20260506T12Z_MSC_GDPS_WindSpeed_IsbL-0950_LatLon0.15_PT021H.grib2 2026-05-06 18:30 1.9M
20260506T12Z_MSC_GDPS_WindSpeed_IsbL-0970_LatLon0.15_PT021H.grib2 2026-05-06 18:30 1.9M
20260506T12Z_MSC_GDPS_WindSpeed_IsbL-0985_LatLon0.15_PT021H.grib2 2026-05-06 18:30 1.8M
20260506T12Z_MSC_GDPS_WindSpeed_IsbL-1000_LatLon0.15_PT021H.grib2 2026-05-06 18:30 1.8M
20260506T12Z_MSC_GDPS_WindSpeed_IsbL-1015_LatLon0.15_PT021H.grib2 2026-05-06 18:30 1.8M
20260506T12Z_MSC_GDPS_WindU_AGL-10m_LatLon0.15_PT021H.grib2 2026-05-06 18:30 1.3M
20260506T12Z_MSC_GDPS_WindU_AGL-120m_LatLon0.15_PT021H.grib2 2026-05-06 18:30 957K
20260506T12Z_MSC_GDPS_WindU_AGL-40m_LatLon0.15_PT021H.grib2 2026-05-06 18:30 955K
20260506T12Z_MSC_GDPS_WindU_AGL-80m_LatLon0.15_PT021H.grib2 2026-05-06 18:30 959K
20260506T12Z_MSC_GDPS_WindU_IsbL-0001_LatLon0.15_PT021H.grib2 2026-05-06 18:30 512K
20260506T12Z_MSC_GDPS_WindU_IsbL-0005_LatLon0.15_PT021H.grib2 2026-05-06 18:30 704K
20260506T12Z_MSC_GDPS_WindU_IsbL-0010_LatLon0.15_PT021H.grib2 2026-05-06 18:30 714K
20260506T12Z_MSC_GDPS_WindU_IsbL-0020_LatLon0.15_PT021H.grib2 2026-05-06 18:30 742K
20260506T12Z_MSC_GDPS_WindU_IsbL-0030_LatLon0.15_PT021H.grib2 2026-05-06 18:30 752K
20260506T12Z_MSC_GDPS_WindU_IsbL-0050_LatLon0.15_PT021H.grib2 2026-05-06 18:30 772K
20260506T12Z_MSC_GDPS_WindU_IsbL-0100_LatLon0.15_PT021H.grib2 2026-05-06 18:30 919K
20260506T12Z_MSC_GDPS_WindU_IsbL-0150_LatLon0.15_PT021H.grib2 2026-05-06 18:30 1.0M
20260506T12Z_MSC_GDPS_WindU_IsbL-0175_LatLon0.15_PT021H.grib2 2026-05-06 18:30 1.0M
20260506T12Z_MSC_GDPS_WindU_IsbL-0200_LatLon0.15_PT021H.grib2 2026-05-06 18:30 843K
20260506T12Z_MSC_GDPS_WindU_IsbL-0225_LatLon0.15_PT021H.grib2 2026-05-06 18:30 854K
20260506T12Z_MSC_GDPS_WindU_IsbL-0250_LatLon0.15_PT021H.grib2 2026-05-06 18:30 913K
20260506T12Z_MSC_GDPS_WindU_IsbL-0275_LatLon0.15_PT021H.grib2 2026-05-06 18:30 938K
20260506T12Z_MSC_GDPS_WindU_IsbL-0300_LatLon0.15_PT021H.grib2 2026-05-06 18:30 933K
20260506T12Z_MSC_GDPS_WindU_IsbL-0350_LatLon0.15_PT021H.grib2 2026-05-06 18:30 892K
20260506T12Z_MSC_GDPS_WindU_IsbL-0400_LatLon0.15_PT021H.grib2 2026-05-06 18:30 895K
20260506T12Z_MSC_GDPS_WindU_IsbL-0450_LatLon0.15_PT021H.grib2 2026-05-06 18:30 898K
20260506T12Z_MSC_GDPS_WindU_IsbL-0500_LatLon0.15_PT021H.grib2 2026-05-06 18:30 1.1M
20260506T12Z_MSC_GDPS_WindU_IsbL-0550_LatLon0.15_PT021H.grib2 2026-05-06 18:30 1.1M
20260506T12Z_MSC_GDPS_WindU_IsbL-0600_LatLon0.15_PT021H.grib2 2026-05-06 18:30 1.2M
20260506T12Z_MSC_GDPS_WindU_IsbL-0650_LatLon0.15_PT021H.grib2 2026-05-06 18:30 1.2M
20260506T12Z_MSC_GDPS_WindU_IsbL-0700_LatLon0.15_PT021H.grib2 2026-05-06 18:30 1.2M
20260506T12Z_MSC_GDPS_WindU_IsbL-0750_LatLon0.15_PT021H.grib2 2026-05-06 18:30 1.3M
20260506T12Z_MSC_GDPS_WindU_IsbL-0800_LatLon0.15_PT021H.grib2 2026-05-06 18:30 1.4M
20260506T12Z_MSC_GDPS_WindU_IsbL-0850_LatLon0.15_PT021H.grib2 2026-05-06 18:30 1.4M
20260506T12Z_MSC_GDPS_WindU_IsbL-0875_LatLon0.15_PT021H.grib2 2026-05-06 18:30 1.5M
20260506T12Z_MSC_GDPS_WindU_IsbL-0900_LatLon0.15_PT021H.grib2 2026-05-06 18:30 1.5M
20260506T12Z_MSC_GDPS_WindU_IsbL-0925_LatLon0.15_PT021H.grib2 2026-05-06 18:30 1.4M
20260506T12Z_MSC_GDPS_WindU_IsbL-0950_LatLon0.15_PT021H.grib2 2026-05-06 18:30 1.4M
20260506T12Z_MSC_GDPS_WindU_IsbL-0970_LatLon0.15_PT021H.grib2 2026-05-06 18:30 1.4M
20260506T12Z_MSC_GDPS_WindU_IsbL-0985_LatLon0.15_PT021H.grib2 2026-05-06 18:30 1.4M
20260506T12Z_MSC_GDPS_WindU_IsbL-1000_LatLon0.15_PT021H.grib2 2026-05-06 18:30 1.4M
20260506T12Z_MSC_GDPS_WindU_IsbL-1015_LatLon0.15_PT021H.grib2 2026-05-06 18:30 1.3M
20260506T12Z_MSC_GDPS_WindV_AGL-10m_LatLon0.15_PT021H.grib2 2026-05-06 18:30 1.3M
20260506T12Z_MSC_GDPS_WindV_AGL-120m_LatLon0.15_PT021H.grib2 2026-05-06 18:30 1.0M
20260506T12Z_MSC_GDPS_WindV_AGL-40m_LatLon0.15_PT021H.grib2 2026-05-06 18:30 953K
20260506T12Z_MSC_GDPS_WindV_AGL-80m_LatLon0.15_PT021H.grib2 2026-05-06 18:30 958K
20260506T12Z_MSC_GDPS_WindV_IsbL-0001_LatLon0.15_PT021H.grib2 2026-05-06 18:30 570K
20260506T12Z_MSC_GDPS_WindV_IsbL-0005_LatLon0.15_PT021H.grib2 2026-05-06 18:30 870K
20260506T12Z_MSC_GDPS_WindV_IsbL-0010_LatLon0.15_PT021H.grib2 2026-05-06 18:30 806K
20260506T12Z_MSC_GDPS_WindV_IsbL-0020_LatLon0.15_PT021H.grib2 2026-05-06 18:30 858K
20260506T12Z_MSC_GDPS_WindV_IsbL-0030_LatLon0.15_PT021H.grib2 2026-05-06 18:30 863K
20260506T12Z_MSC_GDPS_WindV_IsbL-0050_LatLon0.15_PT021H.grib2 2026-05-06 18:30 906K
20260506T12Z_MSC_GDPS_WindV_IsbL-0100_LatLon0.15_PT021H.grib2 2026-05-06 18:30 1.1M
20260506T12Z_MSC_GDPS_WindV_IsbL-0150_LatLon0.15_PT021H.grib2 2026-05-06 18:30 1.0M
20260506T12Z_MSC_GDPS_WindV_IsbL-0175_LatLon0.15_PT021H.grib2 2026-05-06 18:30 1.0M
20260506T12Z_MSC_GDPS_WindV_IsbL-0200_LatLon0.15_PT021H.grib2 2026-05-06 18:30 840K
20260506T12Z_MSC_GDPS_WindV_IsbL-0225_LatLon0.15_PT021H.grib2 2026-05-06 18:30 907K
20260506T12Z_MSC_GDPS_WindV_IsbL-0250_LatLon0.15_PT021H.grib2 2026-05-06 18:30 909K
20260506T12Z_MSC_GDPS_WindV_IsbL-0275_LatLon0.15_PT021H.grib2 2026-05-06 18:30 935K
20260506T12Z_MSC_GDPS_WindV_IsbL-0300_LatLon0.15_PT021H.grib2 2026-05-06 18:30 928K
20260506T12Z_MSC_GDPS_WindV_IsbL-0350_LatLon0.15_PT021H.grib2 2026-05-06 18:30 943K
20260506T12Z_MSC_GDPS_WindV_IsbL-0400_LatLon0.15_PT021H.grib2 2026-05-06 18:30 887K
20260506T12Z_MSC_GDPS_WindV_IsbL-0450_LatLon0.15_PT021H.grib2 2026-05-06 18:30 888K
20260506T12Z_MSC_GDPS_WindV_IsbL-0500_LatLon0.15_PT021H.grib2 2026-05-06 18:30 1.1M
20260506T12Z_MSC_GDPS_WindV_IsbL-0550_LatLon0.15_PT021H.grib2 2026-05-06 18:30 1.1M
20260506T12Z_MSC_GDPS_WindV_IsbL-0600_LatLon0.15_PT021H.grib2 2026-05-06 18:30 1.1M
20260506T12Z_MSC_GDPS_WindV_IsbL-0650_LatLon0.15_PT021H.grib2 2026-05-06 18:30 1.2M
20260506T12Z_MSC_GDPS_WindV_IsbL-0700_LatLon0.15_PT021H.grib2 2026-05-06 18:30 1.2M
20260506T12Z_MSC_GDPS_WindV_IsbL-0750_LatLon0.15_PT021H.grib2 2026-05-06 18:30 1.3M
20260506T12Z_MSC_GDPS_WindV_IsbL-0800_LatLon0.15_PT021H.grib2 2026-05-06 18:30 1.3M
20260506T12Z_MSC_GDPS_WindV_IsbL-0850_LatLon0.15_PT021H.grib2 2026-05-06 18:30 1.4M
20260506T12Z_MSC_GDPS_WindV_IsbL-0875_LatLon0.15_PT021H.grib2 2026-05-06 18:30 1.4M
20260506T12Z_MSC_GDPS_WindV_IsbL-0900_LatLon0.15_PT021H.grib2 2026-05-06 18:30 1.4M
20260506T12Z_MSC_GDPS_WindV_IsbL-0925_LatLon0.15_PT021H.grib2 2026-05-06 18:30 1.4M
20260506T12Z_MSC_GDPS_WindV_IsbL-0950_LatLon0.15_PT021H.grib2 2026-05-06 18:30 1.4M
20260506T12Z_MSC_GDPS_WindV_IsbL-0970_LatLon0.15_PT021H.grib2 2026-05-06 18:30 1.4M
20260506T12Z_MSC_GDPS_WindV_IsbL-0985_LatLon0.15_PT021H.grib2 2026-05-06 18:30 1.4M
20260506T12Z_MSC_GDPS_WindV_IsbL-1000_LatLon0.15_PT021H.grib2 2026-05-06 18:30 1.4M
20260506T12Z_MSC_GDPS_WindV_IsbL-1015_LatLon0.15_PT021H.grib2 2026-05-06 18:30 1.3M